User: anonymous   Login
Location: Unspecified
(0.0000°N, 0.0000°E)
Time: 18:53:28
(UTC+00:00)
Language:

STRAND 1 - Orbit

View from above orbital plane
View from above orbital plane
View from above satellite
View from above satellite

Ground track
Ground track

The orbit data is extracted from the following two-line orbital elements,

1 39090U 13009E   17145.49998006 +.00000038 +00000-0 +28790-4 0  9998
2 39090 098.5561 351.1497 0009516 015.1227 345.0241 14.34965820222205
Epoch (UTC): 25 May 2017 11:59:58
Eccentricity: 0.0009516
inclination: 98.5561°
perigee height: 768 km
apogee height: 782 km
right ascension of ascending node: 351.1497°
argument of perigee: 15.1227°
revolutions per day: 14.34965820
mean anomaly at epoch: 345.0241°
orbit number at epoch: 22220

The dashed part of the orbit path shows where the satellite is in the earth's shadow,  

DLR